Flag for Canada Weather past 2 weeks in Caledon, Ontario, Canada

Now
52 °F

Clear.


Feels Like: 51 °F
Forecast: 53 / 74 °F
Wind: 5 mph from West

Location: Borden

Current Time: Aug 5, 2015 at 7:05:33 AM

Latest Report: Aug 5, 2015 at 6:00 AM


Visibility: 9 mi

Pressure: 29.95 "Hg

Humidity: 94%

Dew point: 50 °F

Location of CaledonLocation

Historic Weather in Caledon — Graph

°F

Caledon temperature yesterday

Maximum temperature yesterday: 73 °F (at 11:00 AM)
Minimum temperature yesterday: 55 °F (at 6:00 AM)
Average temperature yesterday: 65 °F

Past Weeks' High & Low Weather Summary

 TemperatureHumidityPressure
High93 °F (Jul 29, 5:00 PM)100% (Jul 23, 6:00 AM)30.04 "Hg (Jul 23, 6:00 AM)
Low45 °F (Jul 23, 4:00 AM)33% (Jul 30, 5:00 PM)29.58 "Hg (Aug 3, 12:00 AM)
Average69 °F69%29.87 "Hg
* Reported Jul 21 6:00 AM — Aug 5 6:00 AM, Caledon, Weather by CustomWeather, © 2015

Note: Actual official high and low records may vary slightly from our data, if they occured in-between our weather recording intervals... More about our weather records

Advertising

Caledon weather history for previous 24 hours

 ConditionsComfort  
Time TempWeatherWind HumidityBarometerVisibility
6:00 AM
Wed, Aug 5
52 °FClear.5 mph94%29.95 "Hg9 mi
5:00 AM55 °FClear.3 mph88%29.94 "Hg9 mi
4:00 AM57 °FClear.10 mph82%29.94 "Hg9 mi
3:00 AM57 °FClear.6 mph88%29.94 "Hg9 mi
2:00 AM57 °FClear.2 mph88%29.94 "Hg9 mi
1:00 AM55 °FClear.3 mph88%29.95 "Hg9 mi
12:00 AM57 °FClear.3 mph88%29.94 "Hg9 mi
11:00 PM
Tue, Aug 4
59 °FClear.5 mph82%29.93 "Hg9 mi
10:00 PM61 °FClear.2 mph94%29.91 "Hg9 mi
9:00 PM64 °FPassing clouds.No wind94%29.90 "Hg9 mi
8:00 PM66 °FPassing clouds.2 mph88%29.88 "Hg9 mi
7:00 PM68 °FBroken clouds.2 mph78%29.88 "Hg9 mi
6:02 PM66 °FLight rain. Mostly cloudy.2 mph88%29.88 "Hg9 mi
5:00 PM64 °FMore clouds than sun.2 mph94%29.87 "Hg9 mi
4:02 PM68 °FMostly cloudy.7 mph78%29.88 "Hg9 mi
3:00 PM68 °FPartly sunny.10 mph73%29.87 "Hg9 mi
2:00 PM72 °FOvercast.5 mph57%29.86 "Hg9 mi
1:00 PM72 °FPartly sunny.10 mph57%29.87 "Hg9 mi
12:00 PM73 °FPartly sunny.15 mph53%29.87 "Hg9 mi
11:00 AM73 °FPassing clouds.8 mph53%29.87 "Hg9 mi
10:00 AM70 °FPassing clouds.7 mph64%29.87 "Hg9 mi
9:00 AM66 °FPassing clouds.10 mph73%29.86 "Hg9 mi
8:00 AM63 °FSunny.7 mph83%29.87 "Hg9 mi
7:00 AM57 °FClear.3 mph94%29.86 "Hg9 mi
Weather by CustomWeather, © 2015

See weather overviewHow to use our weather pages